Weather History for Anoka County, MN

Change the Weather History Date:

Tuesday, October 1, 2013

  Actual Average Record
Temperature  
Mean Temperature 62 °F -  
Max Temperature 75 °F 61 °F 82 °F (2005)
Min Temperature 48 °F 40 °F 26 °F (2003)
Degree Days  
Heating Degree Days 4    
Growing Degree Days 12 (Base 50)    
Moisture  
Dew Point 46 °F    
Average Humidity 53    
Maximum Humidity 82    
Minimum Humidity 22    
Precipitation  
Precipitation 0.00 in - - ()
Sea Level Pressure  
Sea Level Pressure 29.76 in    
Wind  
Wind Speed 11 mph (SW)    
Max Wind Speed 20 mph    
Max Gust Speed 29 mph    
Visibility 10 miles    
Events      
Averages and records for this station are not official NWS values.
T = Trace of Precipitation, MM = Missing Value Source: NWS Daily Summary

Daily Weather History Graph

Daily Weather History Graph

Search for Another Location

Airport:

Trip Planner

Search our weather history database for the weather conditions in past years. The results will help you decide how hot, cold, wet, or windy it might be!

Date:

Astronomy

Oct. 01, 2013 Rise Set
Actual Time 7:11 AM CDT 6:52 PM CDT
Civil Twilight 6:41 AM CDT 7:22 PM CDT
Nautical Twilight 6:07 AM CDT 7:56 PM CDT
Astronomical Twilight 5:33 AM CDT 8:30 PM CDT
Moon 3:38 AM CDT (10/1) 5:03 PM CDT (10/1)
Length of Visible Light 12h 40m
Length of Day
11h 41m
Waning Crescent, 12% of the Moon is Illuminated
Oct 1
Waning Crescent
Oct 4
New
Oct 11
First Quarter
Oct 18
Full
Oct 26
Last Quarter

Hourly Weather History & Observations

Time (CDT) Temp. Dew Point Humidity Pressure Visibility Wind Dir Wind Speed Gust Speed Precip Events Conditions
12:14 AM 69.8 °F 51.8 °F 53% 29.62 in 10.0 mi South 12.7 mph 20.7 mph N/A   Clear
12:34 AM 69.8 °F 51.8 °F 53% 29.62 in 10.0 mi South 11.5 mph - N/A   Clear
12:54 AM 69.8 °F 51.8 °F 53% 29.62 in 10.0 mi South 12.7 mph - N/A   Clear
1:14 AM 68.0 °F 51.8 °F 56% 29.61 in 10.0 mi South 11.5 mph - N/A   Clear
1:34 AM 69.8 °F 51.8 °F 53% 29.61 in 10.0 mi South 12.7 mph 18.4 mph N/A   Clear
1:54 AM 69.8 °F 51.8 °F 53% 29.61 in 10.0 mi South 15.0 mph 18.4 mph N/A   Clear
2:14 AM 69.8 °F 51.8 °F 53% 29.61 in 10.0 mi South 12.7 mph 20.7 mph N/A   Clear
2:34 AM 69.8 °F 51.8 °F 53% 29.60 in 10.0 mi South 11.5 mph 18.4 mph N/A   Clear
2:54 AM 71.6 °F 51.8 °F 50% 29.59 in 10.0 mi South 13.8 mph 17.3 mph N/A   Clear
3:14 AM 71.6 °F 51.8 °F 50% 29.59 in 10.0 mi SSW 11.5 mph 20.7 mph N/A   Clear
3:34 AM 69.8 °F 51.8 °F 53% 29.59 in 10.0 mi South 10.4 mph 18.4 mph N/A   Clear
3:54 AM 69.8 °F 51.8 °F 53% 29.59 in 10.0 mi South 15.0 mph 19.6 mph N/A   Clear
4:14 AM 69.8 °F 51.8 °F 53% 29.58 in 10.0 mi South 12.7 mph 17.3 mph N/A   Clear
4:34 AM 69.8 °F 51.8 °F 53% 29.59 in 10.0 mi SSW 11.5 mph 18.4 mph N/A   Clear
4:54 AM 69.8 °F 51.8 °F 53% 29.60 in 10.0 mi SSW 11.5 mph 20.7 mph N/A   Clear
5:14 AM 69.8 °F 51.8 °F 53% 29.61 in 10.0 mi SSW 11.5 mph - N/A   Clear
5:33 AM 68.0 °F 51.8 °F 56% 29.61 in 10.0 mi SSW 10.4 mph 16.1 mph N/A   Clear
5:54 AM 68.0 °F 53.6 °F 60% 29.62 in 10.0 mi SW 9.2 mph - N/A   Clear
6:13 AM 66.2 °F 53.6 °F 64% 29.64 in 10.0 mi SW 6.9 mph - N/A   Clear
6:34 AM 66.2 °F 53.6 °F 64% 29.66 in 10.0 mi WSW 8.1 mph - N/A   Clear
6:45 AM 66.2 °F 53.6 °F 64% 29.66 in 10.0 mi WSW 8.1 mph - N/A   Scattered Clouds
6:54 AM 66.2 °F 53.6 °F 64% 29.67 in 10.0 mi West 11.5 mph - N/A   Clear
7:45 AM 64.4 °F 53.6 °F 68% 29.71 in 10.0 mi West 11.5 mph - N/A   Partly Cloudy
8:50 AM 66.2 °F 51.8 °F 60% 29.77 in 10.0 mi West 12.7 mph 20.7 mph N/A   Clear
9:45 AM 68.0 °F 48.2 °F 49% 29.81 in 10.0 mi WNW 16.1 mph 20.7 mph N/A   Clear
10:45 AM 69.8 °F 44.6 °F 40% 29.83 in 10.0 mi WNW 12.7 mph 18.4 mph N/A   Clear
11:45 AM 71.6 °F 39.2 °F 31% 29.84 in 10.0 mi West 13.8 mph - N/A   Clear
12:45 PM 75.2 °F 37.4 °F 25% 29.84 in 10.0 mi West 19.6 mph - N/A   Clear
1:45 PM 75.2 °F 33.8 °F 22% 29.85 in 10.0 mi West 16.1 mph 26.5 mph N/A   Clear
2:45 PM 75.2 °F 33.8 °F 22% 29.86 in 10.0 mi West 18.4 mph 28.8 mph N/A   Clear
3:45 PM 75.2 °F 33.8 °F 22% 29.87 in 10.0 mi West 18.4 mph 25.3 mph N/A   Clear
4:45 PM 75.2 °F 33.8 °F 22% 29.88 in 10.0 mi West 13.8 mph 25.3 mph N/A   Clear
5:45 PM 73.4 °F 33.8 °F 23% 29.89 in 10.0 mi West 11.5 mph 19.6 mph N/A   Clear
6:45 PM 68.0 °F 35.6 °F 30% 29.90 in 10.0 mi West 6.9 mph - N/A   Clear
7:45 PM 60.8 °F 39.2 °F 45% 29.92 in 10.0 mi Calm Calm - N/A   Clear
8:45 PM 55.4 °F 39.2 °F 54% 29.94 in 10.0 mi Calm Calm - N/A   Clear
9:13 PM 53.6 °F 41.0 °F 62% 29.95 in 10.0 mi Calm Calm - N/A   Clear
9:34 PM 53.6 °F 39.2 °F 58% 29.95 in 10.0 mi Calm Calm - N/A   Clear
9:54 PM 53.6 °F 41.0 °F 62% 29.95 in 10.0 mi Calm Calm - N/A   Clear
10:13 PM 50.0 °F 42.8 °F 76% 29.96 in 10.0 mi Calm Calm - N/A   Clear
10:34 PM 51.8 °F 42.8 °F 71% 29.97 in 10.0 mi Calm Calm - N/A   Clear
10:54 PM 51.8 °F 42.8 °F 71% 29.97 in 10.0 mi Calm Calm - N/A   Clear
11:13 PM 48.2 °F 42.8 °F 82% 29.98 in 10.0 mi Calm Calm - N/A   Clear
11:34 PM 48.2 °F 41.0 °F 76% 29.98 in 10.0 mi Calm Calm - N/A   Clear
11:54 PM 48.2 °F 42.8 °F 82% 29.98 in 10.0 mi Calm Calm - N/A   Clear